Location: Unspecified
(64.9000°N, 0.0000°E)
Time: 10:57:47
(UTC+00:00)

Transit 2A Rocket - Pass Details

Date: 18 June 2019
Orbit: 588 x 915 km, 66.7° (Epoch: 20 July)

Event Time Altitude Azimuth Distance (km) Brightness Sun altitude
Rises 16:47:48 0° 288° (WNW) 3,490 9.4 28.8°
Reaches altitude 10° 16:50:23 10° 289° (WNW) 2,515 8.9 28.6°
Maximum altitude 16:56:13 86° 19° (NNE) 826 5.7 27.9°
Drops below altitude 10° 17:01:33 10° 109° (ESE) 2,300 7.1 27.4°
Sets 17:03:50 0° 110° (ESE) 3,172 7.7 27.1°
